DW6648 Weather Reports


time (UTC)temp
C
wind
direction
speed
KPH
gust
KPH
rain 1hr
cm
rain 24hr
cm
rain mn
cm
humidity
%
barometer
mb
20260508004819 10 61 0.0 0.0 0.00 0.00 0.00 80 1014.6
20260508003819 10 107 0.0 0.0 0.00 0.00 0.00 80 1014.7
20260508002818 11 107 0.0 0.0 0.00 0.00 0.00 79 1014.7
20260508000818 11 85 0.0 0.0 0.00 0.00 0.00 79 1014.7
20260508000320 11 97 0.0 0.0 0.00 0.00 0.00 79 1014.7
20260507235817 11 94 0.0 0.0 0.00 0.00 0.00 79 1014.7
20260507234317 11 128 0.0 0.0 0.00 0.00 0.00 79 1014.9
20260507233817 11 102 0.0 0.0 0.00 0.00 0.00 79 1014.9
20260507233318 11 95 0.0 0.0 0.00 0.00 0.00 78 1014.9
20260507232818 11 108 0.0 0.0 0.00 0.00 0.00 78 1014.9
20260507232318 11 118 0.0 0.0 0.00 0.00 0.00 78 1014.9
20260507231818 11 97 0.0 0.0 0.00 0.00 0.00 78 1014.8
20260507230317 11 86 0.0 0.0 0.00 0.00 0.00 77 1014.9
20260507225818 11 86 0.0 0.0 0.00 0.00 0.00 77 1015.0
20260507225318 11 115 0.0 0.0 0.00 0.00 0.00 77 1014.9
20260507224317 11 97 0.0 0.0 0.00 0.00 0.00 77 1014.9
20260507223817 11 133 0.0 0.0 0.00 0.00 0.00 77 1015.0
20260507223317 11 93 0.0 0.0 0.00 0.00 0.00 77 1015.1
20260507221316 11 91 0.0 0.0 0.00 0.00 0.00 76 1015.1
20260507220316 11 114 0.0 0.0 0.00 0.00 0.00 77 1015.2
20260507215816 11 103 0.0 0.0 0.00 0.00 0.00 77 1015.2
20260507214315 11 109 0.0 0.0 0.00 0.00 0.00 77 1015.2
20260507213316 11 114 0.0 0.0 0.00 0.00 0.00 76 1015.1
20260507212316 11 82 0.0 0.0 0.00 0.00 0.00 76 1015.1
20260507211816 11 113 0.0 0.0 0.00 0.00 0.00 76 1015.1
20260507210315 11 129 0.0 0.0 0.00 0.00 0.00 75 1015.0
20260507204315 12 89 0.0 0.0 0.00 0.00 0.00 76 1015.0
20260507203815 12 62 0.0 0.0 0.00 0.00 0.00 76 1014.9
20260507203316 12 96 0.0 0.0 0.00 0.00 0.00 76 1014.9
20260507202816 12 97 0.0 0.0 0.00 0.00 0.00 75 1014.8
20260507200315 12 130 0.0 0.0 0.00 0.00 0.00 74 1014.6
20260507194815 12 89 0.0 0.0 0.00 0.00 0.00 73 1014.3
20260507193815 12 109 0.0 0.0 0.00 0.00 0.00 73 1014.2
20260507193315 12 125 0.0 0.0 0.00 0.00 0.00 73 1014.1
20260507192815 12 89 0.0 0.0 0.00 0.00 0.00 72 1014.2
20260507192315 12 121 0.0 0.0 0.00 0.00 0.00 72 1014.3
20260507190314 13 145 0.0 0.0 0.00 0.00 0.00 67 1014.4
20260507183815 13 187 0.0 0.0 0.00 0.00 0.00 64 1014.3
20260507183315 13 185 0.0 0.0 0.00 0.00 0.00 64 1014.2
20260507175814 14 179 0.0 0.0 0.00 0.00 0.00 57 1014.2
20260507175314 14 180 0.0 0.0 0.00 0.00 0.00 54 1014.1
20260507174814 15 179 0.0 0.0 0.00 0.00 0.00 54 1014.2
20260507173814 15 195 0.0 0.0 0.00 0.00 0.00 53 1014.2
20260507173314 15 181 0.0 0.0 0.00 0.00 0.00 54 1014.1
20260507172813 15 188 0.0 0.0 0.00 0.00 0.00 53 1014.1
20260507172313 15 169 0.0 0.0 0.00 0.00 0.00 53 1014.2
20260507170813 16 190 0.0 0.0 0.00 0.00 0.00 51 1014.2
20260507165813 16 185 0.0 0.0 0.00 0.00 0.00 49 1014.3
20260507164313 16 178 0.0 0.0 0.00 0.00 0.00 47 1014.2
20260507163813 17 172 0.0 0.0 0.00 0.00 0.00 47 1014.2
20260507163313 17 129 0.0 0.0 0.00 0.00 0.00 47 1014.1
20260507162812 17 159 0.0 0.0 0.00 0.00 0.00 46 1014.3
20260507162312 16 167 0.0 0.0 0.00 0.00 0.00 51 1014.2
20260507161812 16 186 0.0 0.0 0.00 0.00 0.00 51 1014.3
20260507160311 17 186 0.0 0.0 0.00 0.00 0.00 52 1014.4
20260507155311 17 182 0.0 0.0 0.00 0.00 0.00 50 1014.4
20260507154311 17 180 0.0 0.0 0.00 0.00 0.00 51 1014.5
20260507152810 17 176 0.0 0.0 0.00 0.00 0.00 49 1014.5
20260507150810 17 183 0.0 0.0 0.00 0.00 0.00 51 1014.7
20260507145809 17 156 0.0 0.0 0.00 0.00 0.00 51 1014.7
20260507144810 17 175 0.0 0.0 0.00 0.00 0.00 52 1014.7
20260507144310 17 182 0.0 0.0 0.00 0.00 0.00 52 1014.6
20260507143310 17 190 0.0 0.0 0.00 0.00 0.00 56 1014.7
20260507142810 17 186 0.0 0.0 0.00 0.00 0.00 55 1014.8
20260507142309 16 132 0.0 0.0 0.00 0.00 0.00 56 1014.8
20260507141809 17 165 0.0 0.0 0.00 0.00 0.00 56 1014.9
20260507141310 17 163 0.0 0.0 0.00 0.00 0.00 56 1014.9
20260507140309 17 181 0.0 0.0 0.00 0.00 0.00 56 1015.1
20260507135309 17 170 0.0 0.0 0.00 0.00 0.00 54 1014.9
20260507133809 17 143 0.0 0.0 0.00 0.00 0.00 53 1014.9
20260507132809 17 162 0.0 0.0 0.00 0.00 0.00 51 1014.9
20260507131808 17 125 0.0 0.0 0.00 0.00 0.00 52 1014.8
20260507125308 17 166 0.0 0.0 0.00 0.00 0.00 52 1014.9
20260507124308 17 202 0.0 0.0 0.00 0.00 0.00 53 1014.9
20260507122308 16 203 0.0 0.0 0.00 0.00 0.00 56 1015.0
20260507120808 16 163 0.0 0.0 0.00 0.00 0.00 57 1015.0
20260507120307 16 172 0.0 0.0 0.00 0.00 0.00 56 1015.0
20260507115806 16 175 0.0 0.0 0.00 0.00 0.00 56 1015.1
20260507114806 17 193 0.0 0.0 0.00 0.00 0.00 54 1015.1
20260507114306 17 184 0.0 0.0 0.00 0.00 0.00 55 1015.1
20260507113306 17 190 0.0 0.0 0.00 0.00 0.00 56 1015.0
20260507112307 16 202 0.0 0.0 0.00 0.00 0.00 60 1015.1
20260507110306 16 155 0.0 0.0 0.00 0.00 0.00 60 1015.2
20260507105805 16 189 0.0 0.0 0.00 0.00 0.00 61 1015.2
20260507103305 15 186 0.0 0.0 0.00 0.00 0.00 62 1015.2
20260507102806 15 174 0.0 0.0 0.00 0.00 0.00 64 1015.2
20260507102307 15 211 0.0 0.0 0.00 0.00 0.00 64 1015.1
20260507100305 15 195 0.0 0.0 0.00 0.00 0.00 67 1015.2
20260507095805 15 156 0.0 0.0 0.00 0.00 0.00 68 1015.2
20260507095306 14 188 0.0 0.0 0.00 0.00 0.00 68 1015.2
20260507094804 14 169 0.0 0.0 0.00 0.00 0.00 69 1015.2
20260507094304 14 165 0.0 0.0 0.00 0.00 0.00 69 1015.1
20260507092306 13 194 0.0 0.0 0.00 0.00 0.00 71 1015.2
20260507082831 12 111 0.0 0.0 0.00 0.00 0.00 78 1015.2
20260507082331 12 138 0.0 0.0 0.00 0.00 0.00 78 1015.2
20260507081330 11 115 0.0 0.0 0.00 0.00 0.00 78 1015.2
20260507075830 11 101 0.0 0.0 0.00 0.00 0.00 78 1015.3
20260507074329 10 107 0.0 0.0 0.00 0.00 0.00 79 1015.2
20260507073829 10 87 0.0 0.0 0.00 0.00 0.00 79 1015.2
20260507073330 10 102 0.0 0.0 0.00 0.00 0.00 80 1015.1
20260507072329 10 137 0.0 0.0 0.00 0.00 0.00 81 1015.1
20260507071830 10 122 0.0 0.0 0.00 0.00 0.00 82 1015.1
20260507070329 8 83 0.0 0.0 0.00 0.00 0.00 83 1014.9
20260507063330 7 109 0.0 0.0 0.00 0.00 0.00 83 1014.8
20260507062828 7 109 0.0 0.0 0.00 0.00 0.00 83 1014.8
20260507062329 7 109 0.0 0.0 0.00 0.00 0.00 83 1014.8
20260507060830 7 122 0.0 0.0 0.00 0.00 0.00 83 1014.7
20260507060328 7 87 0.0 0.0 0.00 0.00 0.00 83 1014.6
20260507055827 7 110 0.0 0.0 0.00 0.00 0.00 83 1014.5
20260507055328 7 32 0.0 0.0 0.00 0.00 0.00 83 1014.5
20260507054827 7 32 0.0 0.0 0.00 0.00 0.00 83 1014.6
20260507054327 7 32 0.0 0.0 0.00 0.00 0.00 83 1014.6
20260507052827 6 5 0.0 0.0 0.00 0.00 0.00 83 1014.5
20260507052327 6 1 0.0 0.0 0.00 0.00 0.00 82 1014.6
20260507051827 6 340 0.0 0.0 0.00 0.00 0.00 82 1014.6
20260507051326 6 346 0.0 0.0 0.00 0.00 0.00 82 1014.6
20260507050326 6 44 0.0 0.0 0.00 0.00 0.00 82 1014.4
20260507044327 6 116 0.0 0.0 0.00 0.00 0.00 82 1014.5
20260507043827 6 115 0.0 0.0 0.00 0.00 0.00 82 1014.4
20260507042826 6 116 0.0 0.0 0.00 0.03 0.00 82 1014.4
20260507042326 6 115 0.0 0.0 0.00 0.03 0.00 81 1014.4
20260507041826 6 115 0.0 0.0 0.00 0.05 0.00 81 1014.4
20260507041326 6 115 0.0 0.0 0.00 0.05 0.00 81 1014.3
20260507032324 6 115 0.0 0.0 0.00 0.08 0.00 80 1014.4
20260507030824 6 115 0.0 0.0 0.00 0.08 0.00 80 1014.4
20260507024823 6 115 0.0 0.0 0.00 0.08 0.00 80 1014.2
20260507024323 6 115 0.0 0.0 0.00 0.08 0.00 80 1014.1
20260507023824 6 114 0.0 0.0 0.00 0.08 0.00 80 1014.1
20260507023323 6 114 0.0 0.0 0.00 0.08 0.00 79 1014.1
20260507022824 6 102 0.0 0.0 0.00 0.08 0.00 79 1014.1
20260507020823 6 42 0.0 0.0 0.00 0.08 0.00 80 1014.1
20260507020323 6 92 0.0 0.0 0.00 0.08 0.00 80 1014.1
20260507015822 6 97 0.0 0.0 0.00 0.08 0.00 80 1014.1
20260507015322 6 48 0.0 0.0 0.00 0.08 0.00 79 1014.1
20260507014822 6 68 0.0 0.0 0.00 0.08 0.00 79 1014.1
20260507014322 6 11 0.0 0.0 0.00 0.08 0.00 79 1014.1
20260507012321 6 86 0.0 0.0 0.00 0.08 0.00 77 1014.1
20260507011821 6 86 0.0 0.0 0.00 0.08 0.00 77 1014.1
20260507010821 6 86 0.0 0.0 0.00 0.08 0.00 76 1014.1
20260507010321 6 86 0.0 0.0 0.00 0.08 0.00 76 1014.1
20260507005821 6 86 0.0 0.0 0.00 0.08 0.00 76 1014.0